This demonstration page uses our WeatherBlox Daily Observations layout. Learn more.

Left ArrowRight Arrow

Hourly Observations for August 20, 2021

Temp ( °F °C ) Dew Point ( °F °C ) Humidity (%) Winds ( mph kmh ) Pressure ( in mb ) Visibility ( mi km ) Precip ( " mm )
12:53 am 00:53 Cloudy with Haze 78 25.6 46 7.8 32 32 NNW 6 9 29.78 1009 6 10 0.00 0.00
1:53 am 01:53 Cloudy with Smoke 79 26.1 48 8.9 34 34 NNW 7 11 29.78 1008 7 11 0.00 0.00
2:53 am 02:53 Cloudy with Haze 74 23.3 47 8.3 38 38 Calm 29.78 1008 6 10 0.00 0.00
3:53 am 03:53 Cloudy with Haze 71 21.7 47 8.3 42 42 Calm 29.78 1009 5 8 0.00 0.00
4:53 am 04:53 Cloudy with Haze 70 21.1 49 9.4 47 47 Calm 29.78 1008 5 8 0.00 0.00
5:53 am 05:53 Cloudy with Haze 68 20 50 10 53 53 Calm 29.79 1009 5 8 0.00 0.00
6:53 am 06:53 Cloudy with Haze 67 19.4 49 9.4 53 53 Calm 29.81 1010 3 5 0.00 0.00
7:53 am 07:53 Cloudy with Haze 69 20.6 52 11.1 55 55 S 5 7 29.83 1010 4 6 0.00 0.00
8:53 am 08:53 Cloudy with Haze 72 22.2 54 12.2 53 53 S 5 7 29.83 1010 5 8 0.00 0.00
9:53 am 09:53 Cloudy with Haze 74 23.3 55 12.8 52 52 Calm 29.82 1010 6 10 0.00 0.00
10:53 am 10:53 Cloudy with Haze 78 25.6 54 12.2 43 43 VRB 3 6 29.80 1009 6 10 0.00 0.00
11:53 am 11:53 Mostly Cloudy with Haze 81 27.2 54 12.2 39 39 SSE 6 9 29.77 1008 5 8 0.00 0.00
12:53 pm 12:53 Mostly Cloudy with Haze 85 29.4 54 12.2 35 35 SSE 7 11 29.74 1007 4 6 0.00 0.00
1:53 pm 13:53 Mostly Cloudy with Haze 89 31.7 53 11.7 29 29 VRB 6 9 29.70 1006 4 6 0.00 0.00
2:53 pm 14:53 Cloudy with Haze 91 32.8 51 10.6 26 26 S 8 13 29.67 1005 3 5 0.00 0.00
3:53 pm 15:53 Cloudy with Haze 93 33.9 48 8.9 21 21 SSE 8 13 29.65 1004 3 5 0.00 0.00
4:16 pm 16:16 Cloudy with Haze 93 33.9 51 10.6 24 24 SSE 12 19 29.62 1003 4 6 0.00 0.00
4:53 pm 16:53 Cloudy with Haze 92 33.3 52 11.1 26 26 SSE 17 28 29.64 1004 4 6 0.00 0.00
5:53 pm 17:53 Cloudy with Haze 89 31.7 51 10.6 27 27 S 17 28 29.64 1004 3 5 0.00 0.00
6:53 pm 18:53 Mostly Cloudy with Haze 84 28.9 55 12.8 37 37 SSE 12 19 29.64 1004 4 6 0.00 0.00
7:03 pm 19:03 Mostly Cloudy with Haze 84 28.9 55 12.8 37 37 SSE 14 22 29.62 1003 3 5 0.00 0.00
7:36 pm 19:36 Cloudy with Haze 83 28.3 54 12.2 37 37 S 10 17 29.62 1003 3 5 0.00 0.00
7:53 pm 19:53 Cloudy with Haze 82 27.8 55 12.8 40 40 S 9 15 29.64 1004 4 6 0.00 0.00
8:53 pm 20:53 Cloudy with Haze 79 26.1 57 13.9 47 47 Calm 29.66 1004 6 10 0.00 0.00
9:53 pm 21:53 Cloudy with Haze 77 25 56 13.3 48 48 Calm 29.67 1005 5 8 0.00 0.00
10:53 pm 22:53 Cloudy with Haze 75 23.9 56 13.3 52 52 N 6 9 29.68 1005 6 10 0.00 0.00
11:53 pm 23:53 Cloudy with Haze 72 22.2 55 12.8 55 55 N 5 7 29.68 1005 5 8 0.00 0.00

Powered by AerisWeather